Weather Roundup
Issued by NWS

Home | Current Version | Previous Version | Text Only | Print | Product List | Glossary On
Versions: 1 2 3 4 5 6 7 8 9 10 11 12 13 14 15 16 17 18 19 20 21 22 23 24 25 26 27 28 29 30 31 32 33 34 35 36 37 38 39 40 41 42 43 44 45 46 47 48 49 50
000
NZUS93 KARX 251959
HRRWXR

CURRENT HOURLY OBSERVATIONS ACROSS
MUCH OF THE UPPER MISSISSIPPI VALLEY
NATIONAL WEATHER SERVICE LA CROSSE WI
300 PM CDT FRI MAY 25 2018


...SOUTHEAST MINNESOTA...


CITY           SKY/WX    TMP DP  RH WIND       PRES   REMARKS
ROCHESTER      FAIR      88  62  41 SW14G26   29.74F
ROCHESTER/MAYO FAIR      88  58  37 W13G22    29.73F
WINONA         FAIR      81  63  54 SW3       29.73F
AUSTIN         FAIR      88  63  42 W12G20    29.74F
ALBERT LEA     FAIR      82  61  47 SW7       29.75F
DODGE CENTER   FAIR      81  64  57 W10       29.78S
PRESTON        FAIR      87  61  41 S10G22    29.76F
OWATONNA       NOT AVBL
FARIBAULT      FAIR      88  63  42 CALM      29.75F
$$

...ELSEWHERE IN MINNESOTA...


CITY           SKY/WX    TMP DP  RH WIND       PRES   REMARKS
MINNEAPOLIS    FAIR      88  62  41 W10       29.71F
INTNL FALLS    FAIR      84  58  40 W9        29.63F
DULUTH         FAIR      87  56  34 W18       29.68F
RED WING       FAIR      88  63  42 W8        29.71F
REDWOOD FALLS  MOSUNNY   89  59  36 VRB6      29.72F
MANKATO        FAIR      88  57  34 W6        29.74F
WORTHINGTON    MOSUNNY   89  53  29 SW8       29.79F
FAIRMONT       SUNNY     89  58  34 W10       29.75F
$$

...SOUTHWEST WISCONSIN...


CITY           SKY/WX    TMP DP  RH WIND       PRES   REMARKS
LA CROSSE      FAIR      88  67  49 S15       29.73F HX  91
PRAIRIE DU CHI FAIR      83  65  53 S8        29.79F
BOSCOBEL       FAIR      86  68  54 S10G20    29.78F
LONE ROCK      NOT AVBL
PLATTEVILLE    FAIR      81  70  68 S16       29.83F
FORT MC COY    FAIR      85  66  52 SW9G17    29.77F
MAUSTON-NEW LI FAIR      85  66  53 SW12G20   29.78F
VIROQUA        FAIR      84  66  53 S15G21    29.81F
WIS DELLS      FAIR      83  63  50 S13       29.80F
$$

...ELSEWHERE IN WISCONSIN...


CITY           SKY/WX    TMP DP  RH WIND       PRES   REMARKS
MILWAUKEE      PTSUNNY   88  61  40 SW15G21   29.82F
MADISON        CLOUDY    83  65  54 SW7       29.80F
GREEN BAY      FAIR      87  62  43 S15G22    29.76F
EAU CLAIRE     NOT AVBL
BLACK RVR FLS  MOCLDY    88  62  40 S12G17    29.75F
MEDFORD        FAIR      78  64  62 SW13G22   29.78F
WAUSAU         NOT AVBL
WIS RAPIDS     FAIR      86  63  45 SW18G24   29.78F
MARSHFIELD       N/A     86  64  47 W18G24    29.76F
RICE LAKE      PTSUNNY   80  67  64 SW13      29.77F
$$

...NORTHEAST IOWA...


CITY           SKY/WX    TMP DP  RH WIND       PRES   REMARKS
WATERLOO       FAIR      86  66  51 S14G20    29.76F
DUBUQUE        FAIR      79  67  66 S14       29.83F
DECORAH        NOT AVBL
MASON CITY     MOSUNNY   88  66  48 W10G20    29.77F HX  90
CHARLES CITY   FAIR      88  63  42 S10G17    29.76F
OELWEIN        FAIR      86  63  45 S17       29.79F
$$

...ELSEWHERE IN IOWA...


CITY           SKY/WX    TMP DP  RH WIND       PRES   REMARKS
DES MOINES     MOSUNNY   86  70  58 S8        29.78F HX  90
IOWA CITY      FAIR      85  64  49 S12       29.82F
FORT DODGE     MOSUNNY   89  65  44 SW9       29.77F HX  91
MARSHALLTOWN   MOSUNNY   87  68  52 SW13      29.78F HX  90
CEDAR RAPIDS   FAIR      85  67  54 SW13      29.80F
$$

...NORTHERN ILLINOIS...


CITY           SKY/WX    TMP DP  RH WIND       PRES   REMARKS
CHICAGO-OHARE  PTSUNNY   88  57  34 VRB7      29.83F
CHICAGO-MIDWAY PTSUNNY   88  58  36 SW6       29.83F
MOLINE         CLOUDY    75  68  78 SE13G23   29.84S
ROCKFORD       CLOUDY    84  57  39 SW9       29.84F
PEORIA         PTSUNNY   73  68  84 W6        29.86F
$$

NOTE: "FAIR" INDICATES FEW OR NO CLOUDS BELOW 12,000 FEET WITH NO
SIGNIFICANT WEATHER AND/OR OBSTRUCTIONS TO VISIBILITY. WIND
SPEEDS ARE IN MILES-PER-HOUR.




USA.gov is the U.S. government's official web portal to all federal, state and local government web resources and services.